Hourly Data Report for October 01, 2017

All times are specified in Local Standard Time (LST). Add 1 hour to adjust for Daylight Saving Time where and when it is observed.

DEBERT
NOVA SCOTIA

45°25'00.000" N
63°28'00.000" W
37.50 m
8201390
71317
ZDB

Download Data

Hourly Data (October 2017)
Hourly Data Report for October 1, 2017
Temp Definition
°C
Dew Point Temp Definition
°C
Rel Hum Definition
%
Wind Dir Definition
10's deg

Wind Spd Definition
km/h
Visibility Definition
km
Stn Press Definition
kPa
Hmdx Definition


Wind Chill Definition


Weather Definition


TIME
00:00 1.8 0.9 94 1 3   102.02     LegendNANA
01:00 1.0 0.0 93 1 2   102.02     LegendNANA
02:00 0.2 -0.7 94 3 4   102.02     LegendNANA
03:00 0.1 -0.9 93 0 1   102.00     LegendNANA
04:00 -0.4 -1.1 95 3 3   101.97   -1 LegendNANA
05:00 -1.2 -2.1 94 3 3   101.95   -2 LegendNANA
06:00 -1.2 -2.0 94   0   101.93     LegendNANA
07:00 0.2 -1.2 90   0   101.95     LegendNANA
08:00 3.1 2.5 96 7 1   101.95     LegendNANA
09:00 4.5 4.1 97 14 2   101.93     LegendNANA
10:00 6.6 6.3 97 33 1   101.88     LegendNANA
11:00 12.2 10.0 86 23 7   101.80     LegendNANA
12:00 13.6 5.8 59 26 27   101.71     LegendNANA
13:00 14.4 6.3 58 25 24   101.64     LegendNANA
14:00 15.2 6.3 55 26 26   101.51     LegendNANA
15:00 15.0 5.4 53 26 26   101.47     LegendNANA
16:00 14.4 3.8 49 26 25   101.43     LegendNANA
17:00 13.6 2.8 48 25 16   101.43     LegendNANA
18:00 11.2 4.0 61 28 16   101.46     LegendNANA
19:00 10.0 4.3 68 31 8   101.51     LegendNANA
20:00 9.2 4.2 71 28 14   101.53     LegendNANA
21:00 9.0 4.8 75 28 13   101.55     LegendNANA
22:00 8.5 5.3 80 27 9   101.56     LegendNANA
23:00 5.7 3.7 87 36 7   101.53     LegendNANA

Notes on Data Quality.

Legend

  • E = Estimated
  • M = Missing
  • NA = Not Available
  • ‡ = Partner data that is not subject to review by the National Climate Archives
Date modified: